Weather Roundup
Issued by NWS Chicago, IL

Home | Current Version | Previous Version | Text Only | Print | Product List | Glossary Off
Versions: 1 2 3 4 5 6 7 8 9 10 11 12 13 14 15 16 17 18 19 20 21 22 23 24 25 26 27 28 29 30 31 32 33 34 35 36 37 38 39 40 41 42 43 44 45 46 47 48 49 50

000
NZUS59 KLOT 282308
HRRLOT

CHICAGO AREA WEATHER ROUNDUP
NATIONAL WEATHER SERVICE CHICAGO/ROMEOVILLE IL
600 PM CDT WED SEP 28 2016

NOTE: "FAIR" INDICATES FEW OR NO CLOUDS BELOW 12,000 FEET WITH NO
SIGNIFICANT WEATHER AND/OR OBSTRUCTIONS TO VISIBILITY.

* THESE STATIONS ARE NOT UNDER NWS QUALITY CONTROL. THEY ALSO MAY NOT
  REPORT WEATHER SUCH AS PRECIPITATION OR FOG.

ILZ005-006-012>014-019>023-290000-
NORTHEAST ILLINOIS

CITY           SKY/WX    TMP DP  RH WIND       PRES   REMARKS
OHARE          LGT RAIN  59  49  69 N15       30.02R
MIDWAY         RAIN      59  51  75 N12       30.00R
AURORA         CLOUDY    62  47  57 N17       30.05R
LANSING*       CLOUDY    57  54  91 NW7       30.00R
JOLIET*        CLOUDY    57  55  94 CALM      30.03S
WAUKEGAN       PTCLDY    59  48  67 N12G21    30.04R
DUPAGE AIRPORT LGT RAIN  60  46  59 N23G29    30.03R
WHEELING       CLOUDY    59  50  72 N14G22    30.04R
KANKAKEE*      CLOUDY    56  52  85 NW10      30.01R
MORRIS*        LGT RAIN  55  53  92 CALM      30.03R
LEWIS AIRPORT* LGT RAIN  55  55  97 N7        30.02S
NORTHERLY ISL    N/A     59  52  77 N16         N/A
$$

WIZ051-052-058>065-066-070>072-290000-
SOUTHEAST WISCONSIN

CITY           SKY/WX    TMP DP  RH WIND       PRES   REMARKS
MILWAUKEE      PTCLDY    60  50  69 N16G26    30.08R
KENOSHA*       CLEAR     59  48  67 N13G21    30.06R
RACINE*        CLEAR     57  50  77 N20G26    30.07S
BURLINGTON     CLEAR     58  47  67 N9        30.08R
WAUKESHA       PTCLDY    57  46  67 N13G18    30.10R
WEST BEND      CLEAR     59  48  67 NE8G17    30.11R
$$

INZ001>003-010>013-019-020-290000-
NORTHWEST INDIANA

CITY           SKY/WX    TMP DP  RH WIND       PRES   REMARKS
GARY*          MOCLDY    63  54  72 N8        30.00R
MICHIGAN CITY* NOT AVBL
RENSSELAER*    NOT AVBL
VALPARAISO     MOCLDY    60  49  66 N5        29.98R
$$

LMZ740>746-290000-
SOUTHERN LAKE MICHIGAN

STATION/POSITION TIME  SKY/WX   TEMP WIND        PRES    VSBY
                                AIR  DIR/SP/G
                 (UTC)          (F)  (DEG/KT/KT) (MB)    (MI)
HARRISON CRIB    2240            64   20/ 26/ 30   N/A
BURNHAM HARBOR   2300            59  340/ 20       N/A
CALUMET HARBOR   2230            62   30/ 12/ 15 1015.1R
BURNS HARBOR     2240            62   50/ 14/ 16 1015.6R
MICHIGAN CITY    2240            60   20/  7/  8   N/A
$$

ABBREVIATIONS USED IN REMARKS
   TC - TEMPERATURE IN CELSIUS
  WCI - WIND CHILL INDEX
   HX - HEAT INDEX
  VSB - VISIBILITY
$$




USA.gov is the U.S. government's official web portal to all federal, state and local government web resources and services.